Radiation Dose at Monitoring Post of Fukushima Daini Nuclear Power Station
Date,Time,MP-1(microSv/h),MP-2(microSv/h),MP-3(microSv/h),MP-4(microSv/h),MP-5(microSv/h),MP-6(microSv/h),MP-7(microSv/h),Wind Direction,Wind Velocity(m/s),Rain
2016/08/26,00:00,0.398,0.237,0.413,0.381,0.367,0.194,0.164,south-southwest,7.3,No
2016/08/26,00:10,0.399,0.236,0.418,0.379,0.365,0.194,0.164,south-southwest,8.0,No
2016/08/26,00:20,0.393,0.236,0.418,0.382,0.362,0.194,0.165,south-southwest,8.0,No
2016/08/26,00:30,0.398,0.238,0.413,0.381,0.364,0.195,0.164,south-southwest,8.1,No
2016/08/26,00:40,0.399,0.237,0.412,0.378,0.367,0.194,0.164,south-southwest,9.0,No
2016/08/26,00:50,0.394,0.235,0.418,0.379,0.363,0.194,0.166,south-southwest,9.4,No
2016/08/26,01:00,0.396,0.239,0.417,0.382,0.363,0.194,0.165,south-southwest,9.2,No
2016/08/26,01:10,0.400,0.237,0.412,0.380,0.365,0.194,0.165,south-southwest,8.8,No
2016/08/26,01:20,0.396,0.236,0.415,0.380,0.364,0.194,0.164,south-southwest,8.4,No
2016/08/26,01:30,0.393,0.239,0.417,0.384,0.360,0.195,0.165,south-southwest,7.9,No
2016/08/26,01:40,0.398,0.236,0.414,0.381,0.367,0.196,0.165,south-southwest,8.3,No
2016/08/26,01:50,0.397,0.238,0.414,0.379,0.364,0.193,0.165,south-southwest,7.1,No
2016/08/26,02:00,0.395,0.238,0.419,0.383,0.361,0.195,0.166,south-southwest,7.3,No
2016/08/26,02:10,0.398,0.237,0.416,0.382,0.366,0.194,0.165,south-southwest,6.5,No
2016/08/26,02:20,0.398,0.238,0.414,0.378,0.366,0.194,0.165,south-southwest,6.0,No
2016/08/26,02:30,0.395,0.239,0.416,0.381,0.361,0.195,0.166,south-southwest,6.1,No
2016/08/26,02:40,0.395,0.237,0.416,0.382,0.364,0.195,0.165,south-southwest,6.5,No
2016/08/26,02:50,0.399,0.238,0.413,0.378,0.367,0.194,0.164,south-southwest,6.4,No
2016/08/26,03:00,0.394,0.238,0.414,0.381,0.363,0.195,0.166,south,6.1,No
2016/08/26,03:10,0.398,0.236,0.418,0.383,0.363,0.195,0.164,south,5.5,No
2016/08/26,03:20,0.400,0.238,0.414,0.379,0.365,0.194,0.165,south,6.1,No
2016/08/26,03:30,0.396,0.238,0.416,0.380,0.365,0.194,0.166,south,6.1,No
2016/08/26,03:40,0.396,0.236,0.419,0.383,0.363,0.195,0.164,south-southwest,6.3,No
2016/08/26,03:50,0.399,0.238,0.415,0.381,0.367,0.194,0.165,south-southwest,5.0,No
2016/08/26,04:00,0.396,0.239,0.413,0.378,0.363,0.195,0.166,south-southwest,5.6,No
2016/08/26,04:10,0.397,0.236,0.419,0.383,0.364,0.196,0.165,south-southwest,5.8,No
2016/08/26,04:20,0.400,0.238,0.415,0.381,0.366,0.193,0.166,south-southwest,6.6,No
2016/08/26,04:30,0.396,0.238,0.414,0.380,0.362,0.195,0.165,south-southwest,7.3,No
2016/08/26,04:40,0.399,0.237,0.419,0.384,0.365,0.194,0.164,south-southwest,6.7,No
2016/08/26,04:50,0.399,0.239,0.415,0.380,0.366,0.194,0.167,south-southwest,7.4,No
2016/08/26,05:00,0.395,0.237,0.414,0.380,0.364,0.196,0.166,south-southwest,6.4,No
2016/08/26,05:10,0.397,0.237,0.420,0.382,0.365,0.194,0.164,south-southwest,6.5,No
2016/08/26,05:20,0.398,0.237,0.415,0.379,0.366,0.193,0.166,south-southwest,6.4,No
2016/08/26,05:30,0.396,0.237,0.413,0.381,0.362,0.195,0.165,south-southwest,6.7,No
2016/08/26,05:40,0.398,0.238,0.420,0.383,0.366,0.194,0.165,south-southwest,6.4,No
2016/08/26,05:50,0.398,0.238,0.417,0.379,0.365,0.194,0.167,south-southwest,6.4,No
2016/08/26,06:00,0.394,0.237,0.413,0.381,0.362,0.195,0.165,south-southwest,6.9,No
2016/08/26,06:10,0.398,0.239,0.419,0.383,0.364,0.194,0.165,south-southwest,6.9,No
2016/08/26,06:20,0.398,0.237,0.416,0.379,0.367,0.194,0.165,south-southwest,6.3,No
2016/08/26,06:30,0.395,0.238,0.415,0.379,0.363,0.196,0.164,south-southwest,5.9,No
2016/08/26,06:40,0.398,0.238,0.418,0.383,0.361,0.194,0.163,south-southwest,5.3,No
2016/08/26,06:50,0.398,0.238,0.418,0.381,0.369,0.194,0.164,south,4.4,No
2016/08/26,07:00,0.396,0.238,0.414,0.380,0.366,0.196,0.165,south,6.3,No
2016/08/26,07:10,0.396,0.238,0.412,0.377,0.365,0.196,0.165,south,6.4,No
2016/08/26,07:20,0.400,0.238,0.412,0.381,0.362,0.194,0.165,south,7.8,No
2016/08/26,07:30,0.398,0.238,0.411,0.384,0.366,0.195,0.165,south,7.7,No
2016/08/26,07:40,0.393,0.237,0.413,0.382,0.368,0.196,0.166,south,8.2,No
2016/08/26,07:50,0.397,0.237,0.421,0.379,0.366,0.195,0.167,south,8.3,No
2016/08/26,08:00,0.400,0.236,0.418,0.380,0.363,0.194,0.165,south,8.1,No
2016/08/26,08:10,0.398,0.237,0.416,0.378,0.362,0.195,0.165,south-southwest,8.3,No
2016/08/26,08:20,0.396,0.237,0.414,0.381,0.364,0.196,0.165,south,8.4,No
2016/08/26,08:30,0.394,0.237,0.414,0.380,0.368,0.196,0.166,south,8.2,No
2016/08/26,08:40,0.396,0.237,0.419,0.381,0.368,0.195,0.166,south,8.3,No
2016/08/26,08:50,0.396,0.238,0.420,0.381,0.365,0.195,0.166,south,9.1,No
2016/08/26,09:00,0.396,0.238,0.415,0.381,0.366,0.195,0.167,south,9.1,No
2016/08/26,09:10,0.396,0.239,0.415,0.383,0.365,0.196,0.166,south,10.0,No
2016/08/26,09:20,0.396,0.239,0.413,0.383,0.363,0.196,0.166,south,10.0,No
2016/08/26,09:30,0.396,0.239,0.412,0.383,0.361,0.195,0.166,south,10.4,No
2016/08/26,09:40,0.397,0.238,0.413,0.383,0.363,0.196,0.165,south,10.6,No
2016/08/26,09:50,0.398,0.238,0.421,0.385,0.364,0.195,0.167,south,10.0,No
2016/08/26,10:00,0.398,0.239,0.419,0.384,0.365,0.195,0.167,south,10.3,No
2016/08/26,10:10,0.397,0.238,0.418,0.385,0.364,0.195,0.166,south,11.8,No
2016/08/26,10:20,0.395,0.239,0.415,0.386,0.363,0.195,0.166,south,12.2,No
2016/08/26,10:30,0.397,0.239,0.414,0.386,0.365,0.195,0.166,south,10.9,No
2016/08/26,10:40,0.399,0.238,0.414,0.384,0.366,0.195,0.166,south,11.8,No
2016/08/26,10:50,0.399,0.239,0.416,0.383,0.366,0.195,0.165,south,11.2,No
2016/08/26,11:00,0.400,0.238,0.416,0.384,0.365,0.195,0.165,south,12.2,No
2016/08/26,11:10,0.400,0.238,0.416,0.383,0.365,0.195,0.166,south,12.4,No
2016/08/26,11:20,0.400,0.238,0.417,0.382,0.366,0.196,0.166,south,14.0,No
2016/08/26,11:30,0.400,0.238,0.418,0.383,0.366,0.194,0.166,south,13.4,No
2016/08/26,11:40,0.400,0.240,0.417,0.382,0.366,0.195,0.165,south,12.7,No
2016/08/26,11:50,0.400,0.239,0.419,0.383,0.365,0.195,0.166,south,12.6,No
2016/08/26,12:00,0.398,0.239,0.420,0.382,0.366,0.196,0.167,south,12.6,No
2016/08/26,12:10,0.399,0.239,0.420,0.383,0.366,0.196,0.166,south,14.3,No
2016/08/26,12:20,0.400,0.239,0.418,0.383,0.364,0.196,0.166,south,12.3,No
2016/08/26,12:30,0.399,0.240,0.419,0.383,0.366,0.196,0.165,south,12.0,No
2016/08/26,12:40,0.397,0.239,0.420,0.384,0.368,0.197,0.166,south,14.3,No
2016/08/26,12:50,0.399,0.239,0.420,0.385,0.365,0.196,0.166,south,14.8,No
2016/08/26,13:00,0.398,0.239,0.420,0.385,0.365,0.196,0.166,south,15.7,No
2016/08/26,13:10,0.399,0.240,0.420,0.385,0.364,0.196,0.166,south,13.9,No
2016/08/26,13:20,0.399,0.238,0.420,0.385,0.366,0.196,0.166,south,13.6,No
2016/08/26,13:30,0.398,0.238,0.419,0.384,0.365,0.196,0.166,south,14.6,No
2016/08/26,13:40,0.398,0.238,0.421,0.384,0.365,0.197,0.166,south,13.8,No
2016/08/26,13:50,0.398,0.239,0.421,0.383,0.365,0.197,0.166,south,14.9,No
2016/08/26,14:00,0.399,0.240,0.419,0.384,0.366,0.195,0.165,south,13.5,No
2016/08/26,14:10,0.399,0.239,0.419,0.384,0.366,0.196,0.166,south,13.4,No
2016/08/26,14:20,0.397,0.238,0.420,0.382,0.365,0.195,0.166,south,14.0,No
2016/08/26,14:30,0.397,0.239,0.419,0.383,0.364,0.196,0.166,south,13.5,No
2016/08/26,14:40,0.396,0.239,0.419,0.381,0.364,0.195,0.166,south,12.1,No
2016/08/26,14:50,0.397,0.238,0.417,0.382,0.364,0.196,0.166,south,12.4,No
2016/08/26,15:00,0.397,0.239,0.416,0.380,0.366,0.196,0.167,south,12.8,No
2016/08/26,15:10,0.396,0.239,0.415,0.382,0.365,0.197,0.165,south,12.8,No
2016/08/26,15:20,0.396,0.238,0.416,0.381,0.366,0.196,0.165,south,13.8,No
2016/08/26,15:30,0.396,0.237,0.416,0.380,0.364,0.196,0.166,south,13.2,No
2016/08/26,15:40,0.395,0.237,0.417,0.380,0.366,0.195,0.165,south,12.3,No
2016/08/26,15:50,0.397,0.237,0.417,0.381,0.364,0.196,0.168,south,12.1,No
2016/08/26,16:00,0.401,0.238,0.415,0.388,0.363,0.196,0.167,south,12.6,No
2016/08/26,16:10,0.402,0.237,0.416,0.387,0.364,0.196,0.166,south,12.3,No
2016/08/26,16:20,0.400,0.240,0.421,0.386,0.364,0.196,0.165,south,12.3,No
2016/08/26,16:30,0.397,0.240,0.423,0.383,0.362,0.197,0.166,south,11.9,No
2016/08/26,16:40,0.399,0.238,0.421,0.382,0.364,0.197,0.168,south,10.9,No
2016/08/26,16:50,0.397,0.238,0.420,0.381,0.364,0.195,0.167,south,10.3,No
2016/08/26,17:00,0.396,0.239,0.417,0.387,0.365,0.196,0.166,south,10.1,No
2016/08/26,17:10,0.402,0.236,0.416,0.388,0.364,0.195,0.165,south,10.2,No
2016/08/26,17:20,0.402,0.236,0.417,0.384,0.365,0.195,0.165,south,10.5,No
2016/08/26,17:30,0.400,0.240,0.421,0.383,0.369,0.196,0.167,south,10.0,No
2016/08/26,17:40,0.396,0.240,0.424,0.381,0.370,0.197,0.167,south,10.2,No
2016/08/26,17:50,0.397,0.239,0.418,0.385,0.368,0.196,0.166,south,9.6,No
2016/08/26,18:00,0.402,0.239,0.416,0.387,0.364,0.196,0.166,south,9.5,No
2016/08/26,18:10,0.404,0.240,0.419,0.385,0.366,0.196,0.167,south,8.9,No
2016/08/26,18:20,0.398,0.239,0.423,0.383,0.370,0.196,0.166,south,9.8,No
2016/08/26,18:30,0.396,0.239,0.421,0.382,0.368,0.197,0.166,south-southwest,9.2,No
2016/08/26,18:40,0.399,0.238,0.419,0.388,0.366,0.196,0.166,south-southwest,6.3,No
2016/08/26,18:50,0.401,0.239,0.417,0.387,0.365,0.196,0.167,south-southwest,7.9,No
2016/08/26,19:00,0.401,0.240,0.422,0.381,0.368,0.196,0.167,south-southwest,8.4,No
2016/08/26,19:10,0.396,0.239,0.423,0.383,0.368,0.197,0.167,south-southwest,8.5,No
2016/08/26,19:20,0.398,0.239,0.420,0.387,0.365,0.198,0.165,south-southwest,8.3,No
2016/08/26,19:30,0.403,0.238,0.418,0.387,0.362,0.196,0.168,south-southwest,8.3,Yes
2016/08/26,19:40,0.400,0.241,0.414,0.385,0.367,0.196,0.166,south-southwest,8.5,Yes
2016/08/26,19:50,0.399,0.239,0.422,0.383,0.369,0.197,0.166,south-southwest,9.6,No
2016/08/26,20:00,0.398,0.239,0.424,0.382,0.366,0.198,0.166,south-southwest,9.8,No
2016/08/26,20:10,0.400,0.237,0.419,0.386,0.364,0.198,0.166,south-southwest,8.6,No
2016/08/26,20:20,0.402,0.240,0.417,0.387,0.364,0.197,0.168,south-southwest,7.7,No
2016/08/26,20:30,0.400,0.240,0.415,0.385,0.370,0.196,0.167,south-southwest,7.8,No
2016/08/26,20:40,0.397,0.239,0.420,0.382,0.368,0.197,0.165,south-southwest,6.9,No
2016/08/26,20:50,0.397,0.237,0.424,0.382,0.365,0.197,0.165,south-southwest,6.5,No
2016/08/26,21:00,0.402,0.240,0.421,0.386,0.363,0.198,0.168,south-southwest,6.1,No
2016/08/26,21:10,0.402,0.240,0.418,0.387,0.366,0.196,0.166,south-southwest,6.2,No
2016/08/26,21:20,0.400,0.238,0.416,0.384,0.369,0.196,0.166,south-southwest,6.3,No
2016/08/26,21:30,0.396,0.237,0.423,0.382,0.367,0.198,0.166,south-southwest,5.5,No
2016/08/26,21:40,0.400,0.240,0.423,0.384,0.363,0.197,0.166,south-southwest,5.2,No
2016/08/26,21:50,0.402,0.241,0.419,0.389,0.363,0.198,0.168,south-southwest,4.7,No
2016/08/26,22:00,0.399,0.239,0.418,0.385,0.367,0.196,0.167,south-southwest,3.6,No
2016/08/26,22:10,0.398,0.238,0.419,0.383,0.369,0.197,0.166,south-southwest,2.9,No
2016/08/26,22:20,0.398,0.240,0.424,0.382,0.365,0.198,0.167,southwest,2.1,No
2016/08/26,22:30,0.402,0.240,0.421,0.387,0.364,0.197,0.168,north,3.3,No
2016/08/26,22:40,0.400,0.239,0.418,0.387,0.365,0.195,0.168,north,7.1,No
2016/08/26,22:50,0.395,0.239,0.416,0.385,0.370,0.197,0.167,north,7.8,No
2016/08/26,23:00,0.398,0.240,0.421,0.381,0.367,0.197,0.167,north,9.1,No
2016/08/26,23:10,0.403,0.239,0.424,0.384,0.367,0.197,0.167,north,6.4,No
2016/08/26,23:20,0.401,0.239,0.420,0.386,0.363,0.197,0.167,north,4.0,Yes
2016/08/26,23:30,0.397,0.238,0.417,0.384,0.370,0.196,0.165,north,3.1,Yes
2016/08/26,23:40,0.402,0.241,0.421,0.383,0.369,0.198,0.167,north-northeast,3.4,Yes
2016/08/26,23:50,0.400,0.241,0.424,0.386,0.365,0.197,0.168,north,7.6,Yes
